[[{"header":{"parameterUnit":"m.s-1","parameterCategory":1,"la1":30.2991,"la2":30.254,"lo1":-89.0895,"lo2":-89.0444,"dy":0.0017,"dx":0.0017,"nx":28,"ny":28,"refTime":"2024-05-31T21:00:00:Z","depth":0,"parameterNumber":2,"parameterNumberName":"U-component_of_WINDS"},"data":[0,0,0,0,0,0,0,0,0,0,0,0,0,0,0,0,0,0,0,0,0,0,0,0,0,0,0,0,0,0,0,0,0,0,0,0,0,0,0,0,0,0,0,0,0,0,0,0,0,0,0,0,0,0,0,0,0,0,-4.1638,-4.164,0,-4.1792,-4.1794,-4.1795,-4.1816,-4.1814,-4.1813,-4.1812,-4.1965,-4.197,-4.1975,0,0,0,0,0,0,0,0,0,0,0,0,0,-4.1359,-4.1364,-4.1638,-4.164,-4.1642,-4.1792,-4.1794,-4.1796,-4.1816,-4.1814,-4.1813,-4.1811,-4.1963,-4.1969,-4.1976,0,0,0,0,0,0,0,0,0,0,0,0,0,-4.1493,-4.1366,-4.1638,-4.167,-4.1675,-4.1791,-4.1794,-4.1796,-4.1816,-4.1814,-4.1812,-4.181,-4.1961,-4.1969,-4.1977,-4.207,0,0,-4.2002,-4.2005,0,0,0,0,0,0,0,0,-4.1485,-4.1503,-4.1664,-4.1668,-4.1673,-4.1783,-4.1751,-4.1888,-4.1817,-4.1762,-4.1811,-4.1809,-4.1906,-4.1918,-4.1952,-4.2077,-4.2084,-4.2002,-4.2007,-4.2011,-4.2013,0,0,0,0,0,0,0,-4.1476,-4.1497,-4.1699,-4.1666,-4.1672,-4.1676,-4.1693,-4.1777,-4.1844,-4.1767,-4.1769,-4.1787,-4.1908,-4.1944,-4.1955,-4.2086,-4.2002,-4.2009,-4.2014,-4.2017,-4.2296,-4.2298,0,0,0,0,0,0,-4.1461,-4.1489,-4.1694,-4.1703,-4.1572,-4.1683,-4.1701,-4.175,-4.1843,-4.1856,-4.1789,-4.1787,-4.1931,-4.1946,-4.1961,-4.2075,-4.2011,-4.2018,-4.2023,-4.2293,-4.2296,-4.2299,0,0,0,0,0,0,-4.1455,-4.1479,-4.1688,-4.1597,-4.1624,-4.169,-4.1744,-4.1754,-4.179,-4.186,-4.1871,-4.1813,-4.193,-4.1949,-4.2043,-4.2081,-4.2022,-4.2029,-4.229,-4.2294,-4.2298,-4.2306,0,0,0,0,0,0,-4.1447,-4.1477,-4.1514,-4.1598,-4.1628,-4.1768,-4.1746,-4.1758,-4.1804,-4.1804,-4.1886,-4.1897,-4.1929,-4.2031,-4.2051,-4.2091,-4.2036,-4.2287,-4.2292,-4.2297,-4.2303,-4.231,-4.2316,0,0,0,0,0,-4.1437,-4.151,-4.1516,-4.154,-4.1676,-4.1771,-4.1788,-4.1825,-4.1807,-4.1844,-4.1889,-4.1895,-4.2074,-4.204,-4.2063,-4.2106,-4.2285,-4.2291,-4.2296,-4.23,-4.2308,-4.2315,0,0,0,0,0,0,-4.1427,-4.1521,-4.1529,-4.1631,-4.1693,-4.1774,-4.1822,-4.1833,-4.19,-4.1897,-4.1938,-4.1957,-4.2048,-4.2087,-4.2048,-4.2202,-4.2178,-4.2188,-4.2172,-4.2181,-4.2188,-4.2175,-4.2042,0,0,0,0,0,-4.1437,-4.1507,-4.1585,-4.1667,-4.1698,-4.1755,-4.1797,-4.182,-4.1886,-4.1911,-4.1963,-4.2025,-4.2096,-4.2141,-4.221,-4.2309,-4.2326,-4.235,-4.2357,-4.2362,-4.2369,-4.2424,-4.2435,-4.2318,-4.2318,-4.2318,0,0,-4.1458,-4.1518,-4.1559,-4.1667,-4.1717,-4.1788,-4.1776,-4.1851,-4.1903,-4.1922,-4.2014,-4.2055,-4.2126,-4.2223,-4.2268,-4.2258,-4.2406,-4.2369,-4.2372,-4.2378,-4.2431,-4.2442,-4.2452,-4.2322,-4.2321,-4.232,0,0,-4.1531,-4.1584,-4.1658,-4.1709,-4.1787,-4.1824,-4.1842,-4.1922,-4.195,-4.2043,-4.2059,-4.2121,-4.2242,-4.2292,-4.2334,-4.2427,-4.2434,-4.2448,-4.2481,-4.2534,-4.2543,-4.2551,-4.2583,-4.2594,-4.2457,-4.2457,-4.2457,0,-4.1546,-4.1654,-4.1694,-4.1769,-4.1815,-4.1838,-4.1912,-4.196,-4.2055,-4.2086,-4.2074,-4.2226,-4.2276,-4.2384,-4.2407,-4.2441,-4.2461,-4.2438,-4.2539,-4.2548,-4.2556,-4.2587,-4.2599,-4.2458,-4.2458,-4.2457,-4.2457,0,-4.1668,-4.1742,-4.1793,-4.1885,-4.1938,-4.2012,-4.2062,-4.2111,-4.213,-4.2168,-4.2262,-4.2323,-4.2404,-4.2432,-4.2451,-4.2544,-4.2535,-4.2531,-4.2507,-4.2567,-4.2597,-4.2609,-4.2459,-4.2459,-4.2458,-4.2458,0,0,-4.1737,-4.1852,-4.187,-4.1912,-4.2,-4.2057,-4.2133,-4.2213,-4.2253,-4.2319,-4.2381,-4.2484,-4.248,-4.2527,-4.2552,-4.2599,-4.2667,-4.2589,-4.2591,-4.2599,-4.2771,-4.2772,-4.2785,-4.2674,-4.2676,-4.2678,-4.2764,0,-4.1818,-4.1954,-4.1993,-4.2106,-4.2174,-4.2197,-4.2263,-4.2323,-4.2361,-4.2424,-4.2466,-4.2537,-4.2528,-4.2556,-4.2604,-4.2649,-4.2702,-4.2644,-4.273,-4.2733,-4.2709,-4.2801,-4.2802,-4.288,-4.2776,-4.2778,-4.278,0,-4.1931,-4.2,-4.212,-4.2199,-4.223,-4.2288,-4.2365,-4.2425,-4.2494,-4.2518,-4.2572,-4.2593,-4.2671,-4.2645,-4.2752,-4.2711,-4.275,-4.2777,-4.2781,-4.2789,-4.2758,-4.2808,-4.2907,-4.2917,-4.2798,-4.2797,-4.2796,0,-4.1967,-4.209,-4.2178,-4.2213,-4.2308,-4.2348,-4.2389,-4.2456,-4.2502,-4.257,-4.26,-4.2675,-4.2715,-4.2773,-4.2813,-4.2791,-4.2916,-4.2894,-4.2937,-4.2936,-4.296,-4.2958,-4.3063,-4.2989,-4.2988,-4.2988,-4.2988,0,-4.2053,-4.2125,-4.2195,-4.2249,-4.233,-4.2374,-4.2453,-4.2495,-4.2555,-4.2616,-4.2641,-4.2698,-4.2749,-4.2813,-4.2845,-4.2928,-4.2946,-4.2967,-4.2974,-4.2964,-4.2961,-4.2987,-4.2982,-4.2991,-4.2991,-4.299,-4.299,0,-4.2105,-4.2156,-4.2252,-4.2335,-4.2357,-4.2413,-4.2483,-4.2536,-4.2576,-4.2653,-4.2674,-4.2736,-4.2812,-4.2859,-4.2955,-4.2977,-4.3067,-4.3074,-4.3044,-4.3047,-4.3087,-4.3081,-4.3211,-4.323,-4.3144,-4.3145,-4.3146,0,-4.2156,-4.2212,-4.2301,-4.2344,-4.2386,-4.2456,-4.2504,-4.255,-4.2598,-4.2681,-4.2723,-4.2801,-4.2865,-4.2986,-4.3038,-4.3112,-4.3119,-4.316,-4.313,-4.3117,-4.3117,-4.3113,-4.3118,-4.3163,-4.3164,-4.3165,-4.3165,0,-4.2239,-4.2261,-4.233,-4.2407,-4.2463,-4.2525,-4.2588,-4.2622,-4.2678,-4.2731,-4.281,-4.286,-4.2959,-4.3035,-4.3114,-4.3155,-4.3169,-4.3175,-4.3188,-4.3177,-4.3156,-4.3166,-4.3055,-4.3171,-4.317,-4.317,-4.317,-4.3169,-4.2291,-4.2342,-4.2412,-4.2487,-4.2539,-4.2597,-4.265,-4.2698,-4.2764,-4.2849,-4.2872,-4.2954,-4.3021,-4.3129,-4.3172,-4.3236,-4.323,-4.325,-4.3254,-4.3258,-4.3258,-4.3148,-4.325,-4.325,-4.325,-4.325,-4.325,0,-4.2374,-4.2421,-4.249,-4.2577,-4.2635,-4.2646,-4.2715,-4.2763,-4.2836,-4.2898,-4.2961,-4.3052,-4.3126,-4.3186,-4.3262,-4.3302,-4.331,-4.332,-4.3316,-4.3325,-4.326,-4.3239,-4.3312,-4.3312,-4.3312,-4.3312,-4.3312,-4.3312,-4.2424,-4.251,-4.2541,-4.2653,-4.2699,-4.278,-4.2819,-4.2872,-4.2922,-4.3022,-4.3085,-4.3123,-4.3184,-4.3266,-4.3334,-4.335,-4.3376,-4.3384,-4.34,-4.3337,-4.333,-4.3324,-4.3305,-4.339,-4.339,-4.3461,-4.3462,-4.3462]},{"header":{"parameterUnit":"m.s-1","parameterCategory":1,"la1":30.2991,"la2":30.254,"lo1":-89.0895,"lo2":-89.0444,"dy":0.0017,"dx":0.0017,"nx":28,"ny":28,"refTime":"2024-05-31T21:00:00:Z","depth":0,"parameterNumber":3,"parameterNumberName":"V-component_of_WINDS"},"data":[0,0,0,0,0,0,0,0,0,0,0,0,0,0,0,0,0,0,0,0,0,0,0,0,0,0,0,0,0,0,0,0,0,0,0,0,0,0,0,0,0,0,0,0,0,0,0,0,0,0,0,0,0,0,0,0,0,0,5.2259,5.2259,0,5.2286,5.2286,5.2287,5.2223,5.2221,5.2219,5.2217,5.2241,5.2243,5.2246,0,0,0,0,0,0,0,0,0,0,0,0,0,5.2149,5.2151,5.2259,5.2259,5.226,5.2286,5.2286,5.2287,5.2223,5.2221,5.2218,5.2216,5.224,5.2243,5.2246,0,0,0,0,0,0,0,0,0,0,0,0,0,5.2188,5.2152,5.2259,5.2231,5.2229,5.2286,5.2286,5.2287,5.2224,5.2221,5.2218,5.2215,5.2239,5.2243,5.2246,5.233,0,0,5.2258,5.226,0,0,0,0,0,0,0,0,5.2186,5.2192,5.2235,5.2233,5.2231,5.2248,5.2256,5.2301,5.2224,5.2226,5.2217,5.2213,5.2245,5.2248,5.226,5.2331,5.2332,5.2258,5.2261,5.2262,5.2263,0,0,0,0,0,0,0,5.2184,5.2191,5.227,5.2236,5.2233,5.2216,5.2219,5.2264,5.2252,5.2225,5.2221,5.2225,5.2244,5.2257,5.226,5.2333,5.2258,5.2261,5.2264,5.2265,5.2473,5.2476,0,0,0,0,0,0,5.2185,5.2189,5.2269,5.227,5.2201,5.2221,5.2223,5.2246,5.2251,5.2249,5.2228,5.2222,5.2252,5.2256,5.2261,5.2358,5.2262,5.2266,5.2268,5.247,5.2474,5.2478,0,0,0,0,0,0,5.2183,5.2193,5.2268,5.2229,5.2237,5.2226,5.2251,5.2248,5.226,5.2253,5.225,5.2243,5.2249,5.2255,5.2313,5.2358,5.2267,5.2271,5.2466,5.2471,5.2476,5.2555,0,0,0,0,0,0,5.218,5.2192,5.2225,5.223,5.2239,5.2321,5.2254,5.225,5.2268,5.226,5.2267,5.2265,5.2247,5.2308,5.2317,5.2362,5.2274,5.2462,5.2469,5.2474,5.2548,5.2562,5.2574,0,0,0,0,0,5.2176,5.2245,5.2227,5.2237,5.228,5.2324,5.2329,5.2308,5.2272,5.2303,5.2299,5.2265,5.2353,5.2315,5.2324,5.2371,5.2459,5.2467,5.2474,5.2543,5.256,5.2574,0,0,0,0,0,0,5.2244,5.2245,5.2225,5.2298,5.2312,5.2313,5.2353,5.2327,5.235,5.2342,5.2314,5.2316,5.238,5.2381,5.2339,5.2452,5.2399,5.2409,5.2448,5.2464,5.2477,5.2474,5.2277,0,0,0,0,0,5.2268,5.2305,5.2304,5.2368,5.2376,5.2364,5.2382,5.2365,5.2377,5.2382,5.2382,5.2394,5.2424,5.2445,5.2472,5.2549,5.2549,5.2586,5.2599,5.2609,5.2617,5.2657,5.2673,5.2502,5.2502,5.2502,0,0,5.2317,5.2322,5.2347,5.2382,5.239,5.2428,5.2369,5.2411,5.2438,5.2388,5.2443,5.2444,5.2455,5.2523,5.2553,5.2526,5.2665,5.2618,5.2627,5.2629,5.2666,5.2683,5.2697,5.2507,5.2506,5.2505,0,0,5.2425,5.2434,5.2488,5.2498,5.2512,5.2504,5.2517,5.2523,5.2521,5.2576,5.254,5.2571,5.2624,5.2634,5.2646,5.2759,5.2728,5.2769,5.2834,5.2874,5.2887,5.2899,5.2938,5.2953,5.2777,5.2777,5.2777,0,5.2483,5.254,5.2519,5.2564,5.258,5.2538,5.2593,5.2603,5.2625,5.2636,5.2607,5.2672,5.2677,5.2747,5.2774,5.2786,5.2799,5.2767,5.2887,5.2899,5.291,5.2947,5.2962,5.2782,5.2781,5.2781,5.278,0,5.2611,5.2651,5.2693,5.2716,5.2737,5.2787,5.2772,5.2795,5.2777,5.2771,5.2828,5.2833,5.286,5.2875,5.2857,5.2942,5.2925,5.2892,5.2838,5.2931,5.2965,5.2979,5.2789,5.2787,5.2786,5.2784,0,0,5.2761,5.2773,5.2789,5.2799,5.2812,5.2842,5.2889,5.2917,5.2938,5.2955,5.2993,5.3039,5.3008,5.3022,5.3005,5.304,5.3128,5.3002,5.3002,5.3024,5.322,5.3244,5.3261,5.3109,5.3111,5.3113,5.3219,0,5.2867,5.295,5.2932,5.3013,5.3048,5.301,5.3051,5.3063,5.3059,5.3088,5.3083,5.3116,5.3074,5.3082,5.3115,5.311,5.3167,5.3103,5.3142,5.3144,5.3139,5.3279,5.3305,5.3404,5.3232,5.3235,5.3236,0,5.3001,5.3025,5.3109,5.3117,5.3131,5.3168,5.3193,5.3222,5.3234,5.3229,5.3245,5.3221,5.3267,5.3214,5.3276,5.3233,5.3248,5.3249,5.3252,5.3254,5.3195,5.3283,5.3435,5.345,5.3257,5.3256,5.3254,0,5.3101,5.3154,5.3211,5.3221,5.3231,5.3258,5.3264,5.3273,5.3291,5.3312,5.3324,5.335,5.3363,5.3384,5.3367,5.3331,5.3432,5.3378,5.3427,5.3428,5.3449,5.3447,5.3604,5.3461,5.3461,5.3461,5.3461,0,5.322,5.3273,5.3256,5.3291,5.3349,5.3328,5.3385,5.3386,5.3395,5.3429,5.3397,5.3429,5.3406,5.3436,5.3423,5.3476,5.3483,5.3479,5.3475,5.3481,5.3481,5.3489,5.3482,5.3465,5.3464,5.3463,5.3463,0,5.3341,5.3331,5.3391,5.3397,5.3399,5.3441,5.3445,5.3477,5.3472,5.3515,5.3524,5.3514,5.3548,5.3534,5.3569,5.3561,5.3628,5.3615,5.3624,5.362,5.367,5.3665,5.3837,5.3857,5.3703,5.3704,5.3705,0,5.3417,5.3457,5.3467,5.3488,5.3496,5.353,5.3549,5.353,5.355,5.3568,5.3598,5.3629,5.3653,5.3708,5.3703,5.373,5.3717,5.3775,5.372,5.3726,5.3716,5.3714,5.3717,5.3786,5.3787,5.3789,5.379,0,5.3552,5.3546,5.3575,5.3602,5.3626,5.3646,5.3664,5.3682,5.3664,5.3689,5.3724,5.3742,5.3779,5.381,5.3834,5.3837,5.3811,5.3808,5.382,5.3826,5.3829,5.3827,5.3652,5.3803,5.3802,5.3801,5.38,5.38,5.3652,5.3685,5.3698,5.3731,5.3743,5.376,5.3791,5.3789,5.3818,5.3847,5.3834,5.3874,5.3885,5.3915,5.3923,5.3953,5.393,5.3949,5.3953,5.3958,5.3964,5.3826,5.3957,5.3957,5.3957,5.3956,5.3956,0,5.3785,5.3791,5.3822,5.3848,5.3874,5.3849,5.3867,5.389,5.3926,5.3939,5.3964,5.4003,5.4033,5.4032,5.4059,5.4084,5.4072,5.4091,5.4089,5.409,5.3983,5.3969,5.41,5.41,5.41,5.41,5.41,5.41,5.3857,5.3912,5.3908,5.3968,5.3974,5.4014,5.4026,5.4042,5.4052,5.4098,5.4124,5.4123,5.413,5.4158,5.4184,5.4183,5.4194,5.4218,5.4212,5.4112,5.4097,5.4084,5.407,5.4221,5.4221,5.4316,5.4317,5.4318]}]]